DW6352 Weather Reports


Display with metric or nautical units.
time (UTC)temp
F
wind
direction
speed
MPH
gust
MPH
rain 1hr
in
rain 24hr
in
rain mn
in
humidity
%
barometer
mb
20260903183127 85 114 6.0 13.0 0.00 0.00 0.00 60 1006.9
20260903181508 84 115 6.0 15.0 0.00 0.00 0.00 65 1007.1
20260903180035 84 122 10.0 15.0 0.00 0.00 0.00 66 1007.2
20260903174627 83 116 11.0 17.0 0.00 0.00 0.00 64 1007.4
20260903173004 82 117 3.0 12.0 0.00 0.00 0.00 67 1007.7
20260903171511 84 128 5.0 12.0 0.00 0.00 0.00 68 1007.9
20260903170015 82 125 5.0 10.0 0.00 0.00 0.00 69 1008.1
20260903164513 80 130 4.0 8.0 0.00 0.00 0.00 71 1008.4
20260903163010 80 167 4.0 9.0 0.00 0.00 0.00 70 1008.4
20260903161505 80 121 3.0 8.0 0.00 0.00 0.00 72 1008.4
20260903160016 80 126 3.0 9.0 0.00 0.00 0.00 75 1008.5
20260903154636 80 124 4.0 10.0 0.00 0.00 0.00 72 1008.3
20260903153018 79 111 3.0 8.0 0.00 0.00 0.00 75 1008.3
20260903151504 78 129 5.0 9.0 0.00 0.00 0.00 77 1008.3
20260903150126 77 96 5.0 9.0 0.00 0.00 0.00 76 1008.4
20260903144630 77 100 4.0 8.0 0.00 0.00 0.00 77 1008.6
20260903143128 76 128 6.0 9.0 0.00 0.00 0.00 78 1008.5
20260903141522 74 125 3.0 10.0 0.00 0.00 0.00 79 1008.5
20260903140127 73 59 4.0 10.0 0.00 0.00 0.00 80 1008.6
20260903134626 71 108 4.0 10.0 0.00 0.00 0.00 81 1008.7
20260903133002 70 83 5.0 10.0 0.00 0.00 0.00 81 1008.8
20260903131503 69 74 5.0 9.0 0.00 0.00 0.00 82 1009.0
20260903130012 68 135 5.0 10.0 0.00 0.00 0.00 82 1009.0
20260903124511 67 130 3.0 9.0 0.00 0.00 0.00 82 1008.9
20260903123127 67 76 2.0 6.0 0.00 0.00 0.00 83 1009.0
20260903121630 66 79 2.0 5.0 0.00 0.00 0.00 83 1009.0
20260903120130 66 49 2.0 6.0 0.00 0.00 0.00 83 1009.1
20260903114502 65 59 2.0 4.0 0.00 0.00 0.00 83 1009.1
20260903113020 66 30 3.0 6.0 0.00 0.00 0.00 82 1009.0
20260903111506 66 76 1.0 5.0 0.00 0.00 0.00 82 1009.0
20260903110003 66 84 3.0 6.0 0.00 0.00 0.00 82 1008.9
20260903104626 66 71 3.0 6.0 0.00 0.00 0.00 82 1008.7
20260903103002 66 70 2.0 8.0 0.00 0.00 0.00 81 1008.5
20260903101628 66 70 4.0 9.0 0.00 0.00 0.00 82 1008.6
20260903100018 66 75 3.0 8.0 0.00 0.00 0.00 82 1008.5
20260903094510 67 40 1.0 5.0 0.00 0.00 0.00 81 1008.5
20260903093031 67 49 2.0 7.0 0.00 0.00 0.00 80 1008.4
20260903091506 67 72 3.0 6.0 0.00 0.00 0.00 81 1008.4
20260903090023 67 76 2.0 4.0 0.00 0.00 0.00 81 1008.6
20260903084624 67 62 2.0 5.0 0.00 0.00 0.00 79 1008.8
20260903083001 67 59 1.0 6.0 0.00 0.00 0.00 79 1008.8
20260903081630 67 48 2.0 8.0 0.00 0.00 0.00 79 1008.7
20260903080125 67 92 3.0 9.0 0.00 0.00 0.00 78 1008.8
20260903074509 68 65 3.0 7.0 0.00 0.00 0.00 77 1008.9
20260903073012 68 80 1.0 4.0 0.00 0.00 0.00 77 1009.0
20260903071626 68 98 2.0 5.0 0.00 0.00 0.00 76 1009.0
20260903070019 69 35 2.0 9.0 0.00 0.00 0.00 74 1009.1
20260903064506 69 57 2.0 6.0 0.00 0.00 0.00 74 1009.3
20260903063125 70 22 3.0 6.0 0.00 0.00 0.00 74 1009.2
20260903061630 70 63 2.0 5.0 0.00 0.00 0.00 74 1009.3
20260903060131 70 66 1.0 3.0 0.00 0.00 0.00 75 1009.5
20260903054522 69 72 1.0 5.0 0.00 0.00 0.00 75 1009.6
20260903053130 69 48 1.0 5.0 0.00 0.00 0.00 75 1009.6
20260903051505 69 49 1.0 4.0 0.00 0.00 0.00 74 1009.7
20260903050009 70 42 1.0 4.0 0.00 0.00 0.00 73 1009.7
20260903044506 70 38 1.0 4.0 0.00 0.00 0.00 73 1009.7
20260903043124 70 40 2.0 4.0 0.00 0.00 0.00 72 1009.7
20260903041517 71 65 1.0 5.0 0.00 0.00 0.00 71 1009.7
20260903040008 71 59 3.0 6.0 0.00 0.00 0.00 70 1009.7
20260903034514 72 51 3.0 6.0 0.00 0.00 0.00 69 1009.7
20260903033122 72 51 3.0 6.0 0.00 0.00 0.00 68 1009.9
20260903031503 72 49 2.0 5.0 0.00 0.00 0.00 69 1009.9
20260903030127 73 43 2.0 6.0 0.00 0.00 0.00 68 1010.0
20260903024512 73 74 2.0 5.0 0.00 0.00 0.00 67 1009.9
20260903023002 74 55 3.0 6.0 0.00 0.00 0.00 67 1010.0
20260903021627 73 56 1.0 5.0 0.00 0.00 0.00 69 1009.9
20260903020012 73 43 2.0 3.0 0.00 0.00 0.00 71 1009.7
20260903014510 74 43 1.0 3.0 0.00 0.00 0.00 69 1009.3
20260903013007 72 43 2.0 4.0 0.00 0.00 0.00 72 1009.2
20260903011510 73 43 1.0 2.0 0.00 0.00 0.00 72 1009.2
20260903010008 73 43 0.0 1.0 0.00 0.00 0.00 69 1009.2
20260903004520 76 43 0.0 3.0 0.00 0.00 0.00 64 1009.2
20260903003010 79 43 1.0 5.0 0.00 0.00 0.00 57 1009.1
20260903001514 80 45 2.0 5.0 0.00 0.00 0.00 56 1009.1
20260903000132 80 64 3.0 6.0 0.00 0.00 0.00 56 1009.0
20260902234505 82 35 3.0 5.0 0.00 0.00 0.00 54 1009.2
20260902233002 81 69 1.0 5.0 0.00 0.00 0.00 59 1009.1
20260902231518 80 85 1.0 3.0 0.00 0.00 0.00 58 1009.1
20260902230139 83 53 3.0 8.0 0.00 0.00 0.00 52 1009.2
20260902224514 82 69 4.0 6.0 0.00 0.00 0.00 53 1009.2
20260902223128 83 146 2.0 5.0 0.00 0.00 0.00 50 1009.3
20260902221516 82 76 2.0 5.0 0.00 0.00 0.00 53 1009.3
20260902220006 82 300 1.0 6.0 0.00 0.00 0.00 52 1009.4
20260902214510 83 351 4.0 7.0 0.00 0.00 0.00 52 1009.2
20260902213013 83 52 3.0 8.0 0.00 0.00 0.00 52 1009.4
20260902211518 83 88 4.0 9.0 0.00 0.00 0.00 53 1009.5
20260902210010 82 48 1.0 9.0 0.00 0.00 0.00 53 1009.6
20260902204514 82 355 3.0 7.0 0.00 0.00 0.00 54 1009.6
20260902203008 81 55 1.0 6.0 0.00 0.00 0.00 55 1009.7
20260902201503 81 101 3.0 9.0 0.00 0.00 0.00 56 1009.7
20260902200021 80 20 2.0 7.0 0.00 0.00 0.00 59 1009.8
20260902194507 80 63 2.0 6.0 0.00 0.00 0.00 58 1010.0
20260902193131 81 54 4.0 9.0 0.00 0.00 0.00 59 1010.0
20260902191621 79 88 1.0 6.0 0.00 0.00 0.00 58 1010.2
20260902190004 79 54 1.0 6.0 0.00 0.00 0.00 56 1010.5
20260902184512 79 87 3.0 6.0 0.00 0.00 0.00 58 1010.7